Find BONUM-1

NORAD ID: 25546 Int'l Des: 1998-068 Owner: BONUM Country: RU operational
HEOCIRCULAR

Live Position

Loading 3D Globe...

About BONUM-1

Description loading...

Upcoming Passes

Passes for default location (London). Set your location on the main map for personalized predictions.

Altitude History

Loading altitude history...

Two-Line Element Set

1 25546U 98068A 26104.65467644 -.00000223 00000-0 00000+0 0 9995
2 25546 10.7592 46.9802 0004492 345.5699 29.8148 0.99040778 99911
Epoch: Apr 14, 2026 • Age: 11 hours

Current Status

Altitude 36153.4 km
Velocity 3.06 km/s
Sub-Earth Point 0.18°N, 18.18°W
Launch Date Nov 22, 1998
Age 27.3 years
Type other

Technical Details

Classification Payload
Mass 795.00 kg
Dry Mass 600.00 kg
Total Mass 1425.00 kg
Length 7.50 m
Diameter 2.20 m
Span 7.50 m
Shape Cyl
Manufacturer HSES
Bus Type HS-376HP
Phase Status Renamed
Owner/State BONUM/RU

Most Searched